[[{"header":{"parameterUnit":"m.s-1","parameterCategory":1,"la1":30.2991,"la2":30.254,"lo1":-89.0895,"lo2":-89.0444,"dy":0.0017,"dx":0.0017,"nx":28,"ny":28,"refTime":"2023-10-30T21:00:00:Z","depth":0,"parameterNumber":2,"parameterNumberName":"U-component_of_WINDS"},"data":[0,0,0,0,0,0,0,0,0,0,0,0,0,0,0,0,0,0,0,0,0,0,0,0,0,0,0,0,0,0,0,0,0,0,0,0,0,0,0,0,0,0,0,0,0,0,0,0,0,0,0,0,0,0,0,0,0,0,-1.2567,-1.2567,0,-1.2566,-1.2566,-1.2566,-1.2512,-1.2511,-1.2509,-1.2508,-1.2509,-1.251,-1.2512,0,0,0,0,0,0,0,0,0,0,0,0,0,-1.2524,-1.2525,-1.2567,-1.2567,-1.2567,-1.2566,-1.2566,-1.2566,-1.2512,-1.2511,-1.2509,-1.2507,-1.2509,-1.251,-1.2512,0,0,0,0,0,0,0,0,0,0,0,0,0,-1.2535,-1.2525,-1.2567,-1.254,-1.2538,-1.2566,-1.2566,-1.2566,-1.2513,-1.2511,-1.2509,-1.2507,-1.2508,-1.251,-1.2512,-1.2567,0,0,-1.2518,-1.2519,0,0,0,0,0,0,0,0,-1.2534,-1.2537,-1.2544,-1.2542,-1.2539,-1.2537,-1.2551,-1.2566,-1.2513,-1.2522,-1.2508,-1.2506,-1.252,-1.2521,-1.2526,-1.2567,-1.2567,-1.2518,-1.2519,-1.252,-1.2521,0,0,0,0,0,0,0,-1.2534,-1.2536,-1.2567,-1.2544,-1.2541,-1.2529,-1.2528,-1.2554,-1.2533,-1.2521,-1.2517,-1.2518,-1.2518,-1.2524,-1.2525,-1.2567,-1.2518,-1.252,-1.2521,-1.2522,-1.2652,-1.2655,0,0,0,0,0,0,-1.2536,-1.2536,-1.2567,-1.2567,-1.2532,-1.2531,-1.253,-1.254,-1.2533,-1.253,-1.252,-1.2515,-1.2521,-1.2523,-1.2525,-1.2588,-1.252,-1.2522,-1.2523,-1.265,-1.2653,-1.2655,0,0,0,0,0,0,-1.2536,-1.254,-1.2567,-1.255,-1.2553,-1.2534,-1.2546,-1.2541,-1.2546,-1.2531,-1.2528,-1.2529,-1.252,-1.2522,-1.2556,-1.2587,-1.2523,-1.2525,-1.2648,-1.2651,-1.2654,-1.2715,0,0,0,0,0,0,-1.2535,-1.254,-1.256,-1.2551,-1.2554,-1.2598,-1.2547,-1.2543,-1.255,-1.2544,-1.2539,-1.2536,-1.2518,-1.2554,-1.2558,-1.2589,-1.2526,-1.2645,-1.2649,-1.2653,-1.271,-1.272,-1.2729,0,0,0,0,0,-1.2533,-1.2578,-1.2561,-1.2565,-1.2579,-1.26,-1.2601,-1.2579,-1.2552,-1.2573,-1.2563,-1.2536,-1.2583,-1.2558,-1.2563,-1.2594,-1.2643,-1.2648,-1.2653,-1.2706,-1.2718,-1.2729,0,0,0,0,0,0,-1.2591,-1.2576,-1.2558,-1.26,-1.2602,-1.2591,-1.2616,-1.2593,-1.2603,-1.2597,-1.257,-1.2569,-1.2608,-1.2604,-1.2576,-1.2647,-1.2608,-1.2615,-1.2647,-1.2659,-1.2668,-1.2668,-1.2528,0,0,0,0,0,-1.2609,-1.2627,-1.2613,-1.2652,-1.2653,-1.2635,-1.2643,-1.2626,-1.2627,-1.2627,-1.262,-1.2622,-1.2637,-1.2648,-1.2661,-1.271,-1.2708,-1.2734,-1.2743,-1.2751,-1.2757,-1.2782,-1.2793,-1.2672,-1.2672,-1.2672,0,0,-1.2645,-1.2639,-1.2653,-1.2663,-1.2662,-1.2682,-1.2635,-1.2658,-1.2673,-1.2631,-1.2662,-1.2657,-1.2658,-1.27,-1.2718,-1.2698,-1.279,-1.2757,-1.2764,-1.2765,-1.2788,-1.28,-1.281,-1.2676,-1.2675,-1.2674,0,0,-1.2722,-1.272,-1.2752,-1.2752,-1.2751,-1.2738,-1.2746,-1.2738,-1.2733,-1.2764,-1.2733,-1.275,-1.2777,-1.2778,-1.2783,-1.2861,-1.2836,-1.2866,-1.2914,-1.2939,-1.2948,-1.2957,-1.2984,-1.2994,-1.2871,-1.2872,-1.2872,0,-1.2768,-1.2796,-1.2771,-1.2796,-1.2801,-1.2764,-1.2796,-1.2798,-1.2802,-1.2806,-1.2784,-1.2817,-1.2815,-1.2856,-1.2875,-1.288,-1.2888,-1.2866,-1.2949,-1.2957,-1.2964,-1.299,-1.3,-1.2875,-1.2875,-1.2874,-1.2874,0,-1.2852,-1.2872,-1.2898,-1.2902,-1.2911,-1.2939,-1.2919,-1.2931,-1.2913,-1.2903,-1.2936,-1.2932,-1.2943,-1.2952,-1.2935,-1.2991,-1.2979,-1.2953,-1.2914,-1.298,-1.3003,-1.3013,-1.288,-1.2879,-1.2878,-1.2877,0,0,-1.2965,-1.2954,-1.2964,-1.2966,-1.2962,-1.2977,-1.3004,-1.3015,-1.3025,-1.303,-1.3051,-1.3075,-1.3051,-1.3056,-1.304,-1.3062,-1.3123,-1.3033,-1.3033,-1.305,-1.3184,-1.3203,-1.3214,-1.3107,-1.3109,-1.311,-1.3184,0,-1.3039,-1.3083,-1.3062,-1.311,-1.3127,-1.3092,-1.3116,-1.3116,-1.3108,-1.3122,-1.3113,-1.313,-1.3097,-1.31,-1.312,-1.3111,-1.3149,-1.3106,-1.3127,-1.3128,-1.3127,-1.3227,-1.3247,-1.3316,-1.3193,-1.3194,-1.3195,0,-1.313,-1.3138,-1.3187,-1.318,-1.3186,-1.3208,-1.3216,-1.323,-1.323,-1.3222,-1.3228,-1.3206,-1.3232,-1.3194,-1.323,-1.3201,-1.3208,-1.3205,-1.3208,-1.3208,-1.3165,-1.323,-1.3338,-1.3348,-1.321,-1.3209,-1.3208,0,-1.3207,-1.3229,-1.3261,-1.3264,-1.3256,-1.3272,-1.327,-1.3268,-1.3275,-1.3283,-1.3288,-1.3298,-1.3304,-1.3313,-1.3295,-1.3269,-1.3334,-1.3294,-1.3328,-1.3328,-1.3342,-1.3342,-1.3453,-1.3349,-1.3349,-1.3348,-1.3348,0,-1.3291,-1.3323,-1.3295,-1.3315,-1.3349,-1.3325,-1.336,-1.3354,-1.3352,-1.337,-1.3341,-1.3359,-1.3334,-1.335,-1.3336,-1.3367,-1.3371,-1.3365,-1.3361,-1.3367,-1.3368,-1.3371,-1.3366,-1.3351,-1.335,-1.335,-1.3349,0,-1.3382,-1.3365,-1.3398,-1.3388,-1.3386,-1.3412,-1.3404,-1.3422,-1.3411,-1.3435,-1.3439,-1.3422,-1.3439,-1.3422,-1.3438,-1.3428,-1.3471,-1.346,-1.3471,-1.3467,-1.3502,-1.3499,-1.3619,-1.3633,-1.3521,-1.3522,-1.3523,0,-1.3437,-1.346,-1.3452,-1.3462,-1.3462,-1.3478,-1.3486,-1.3463,-1.3472,-1.3474,-1.3492,-1.3506,-1.3516,-1.3545,-1.3534,-1.3546,-1.3535,-1.3576,-1.3537,-1.3542,-1.3535,-1.3533,-1.3535,-1.3584,-1.3586,-1.3587,-1.3588,0,-1.3535,-1.3525,-1.3537,-1.3546,-1.3556,-1.3562,-1.3566,-1.3576,-1.3553,-1.3565,-1.3581,-1.3589,-1.3605,-1.3619,-1.3628,-1.3626,-1.3603,-1.36,-1.3609,-1.3615,-1.362,-1.3617,-1.3492,-1.3597,-1.3596,-1.3596,-1.3595,-1.3595,-1.3609,-1.3627,-1.3625,-1.3639,-1.364,-1.3644,-1.3661,-1.3652,-1.3665,-1.3676,-1.3662,-1.3682,-1.3682,-1.3691,-1.3692,-1.3708,-1.369,-1.3703,-1.3706,-1.3709,-1.3714,-1.3618,-1.371,-1.3709,-1.3709,-1.3709,-1.3709,0,-1.3704,-1.3701,-1.3715,-1.3721,-1.3732,-1.3709,-1.3713,-1.3724,-1.3742,-1.3743,-1.3754,-1.3773,-1.3786,-1.3777,-1.3789,-1.3804,-1.3793,-1.3808,-1.3806,-1.3806,-1.3729,-1.372,-1.3816,-1.3816,-1.3816,-1.3816,-1.3816,-1.3816,-1.3756,-1.3786,-1.3776,-1.3807,-1.3804,-1.3823,-1.3827,-1.3831,-1.3832,-1.3854,-1.3865,-1.3859,-1.3856,-1.3868,-1.388,-1.3877,-1.3882,-1.39,-1.3893,-1.3822,-1.3811,-1.3801,-1.3792,-1.3901,-1.3902,-1.3968,-1.3969,-1.3969]},{"header":{"parameterUnit":"m.s-1","parameterCategory":1,"la1":30.2991,"la2":30.254,"lo1":-89.0895,"lo2":-89.0444,"dy":0.0017,"dx":0.0017,"nx":28,"ny":28,"refTime":"2023-10-30T21:00:00:Z","depth":0,"parameterNumber":3,"parameterNumberName":"V-component_of_WINDS"},"data":[0,0,0,0,0,0,0,0,0,0,0,0,0,0,0,0,0,0,0,0,0,0,0,0,0,0,0,0,0,0,0,0,0,0,0,0,0,0,0,0,0,0,0,0,0,0,0,0,0,0,0,0,0,0,0,0,0,0,-1.4442,-1.4443,0,-1.4501,-1.4502,-1.4502,-1.4515,-1.4514,-1.4514,-1.4514,-1.4571,-1.4573,-1.4575,0,0,0,0,0,0,0,0,0,0,0,0,0,-1.4338,-1.4339,-1.4442,-1.4443,-1.4443,-1.4501,-1.4502,-1.4502,-1.4515,-1.4514,-1.4514,-1.4513,-1.457,-1.4573,-1.4575,0,0,0,0,0,0,0,0,0,0,0,0,0,-1.4388,-1.434,-1.4442,-1.4457,-1.4459,-1.4501,-1.4502,-1.4503,-1.4515,-1.4514,-1.4514,-1.4513,-1.457,-1.4572,-1.4575,-1.4606,0,0,-1.4584,-1.4585,0,0,0,0,0,0,0,0,-1.4385,-1.4392,-1.4454,-1.4456,-1.4458,-1.45,-1.4486,-1.4537,-1.4515,-1.4493,-1.4514,-1.4513,-1.4548,-1.4552,-1.4565,-1.4609,-1.4611,-1.4584,-1.4586,-1.4587,-1.4588,0,0,0,0,0,0,0,-1.4382,-1.439,-1.4465,-1.4455,-1.4457,-1.4459,-1.4466,-1.4496,-1.4523,-1.4495,-1.4496,-1.4503,-1.4549,-1.4562,-1.4566,-1.4612,-1.4584,-1.4587,-1.4589,-1.459,-1.4685,-1.4685,0,0,0,0,0,0,-1.4376,-1.4387,-1.4463,-1.4467,-1.4419,-1.4462,-1.4469,-1.4487,-1.4523,-1.4528,-1.4504,-1.4504,-1.4557,-1.4563,-1.4568,-1.4607,-1.4587,-1.459,-1.4592,-1.4684,-1.4685,-1.4686,0,0,0,0,0,0,-1.4374,-1.4383,-1.4461,-1.4427,-1.4437,-1.4464,-1.4484,-1.4489,-1.4502,-1.453,-1.4534,-1.4513,-1.4557,-1.4564,-1.4597,-1.4609,-1.4591,-1.4594,-1.4683,-1.4684,-1.4685,-1.4685,0,0,0,0,0,0,-1.4371,-1.4382,-1.4394,-1.4427,-1.4439,-1.4489,-1.4485,-1.449,-1.4507,-1.4508,-1.4539,-1.4543,-1.4557,-1.4593,-1.46,-1.4613,-1.4596,-1.4682,-1.4683,-1.4685,-1.4684,-1.4686,-1.4688,0,0,0,0,0,-1.4367,-1.4391,-1.4395,-1.4404,-1.4455,-1.449,-1.4497,-1.4513,-1.4508,-1.4521,-1.4539,-1.4542,-1.4607,-1.4596,-1.4604,-1.4618,-1.4681,-1.4683,-1.4685,-1.4683,-1.4686,-1.4688,0,0,0,0,0,0,-1.4357,-1.4396,-1.44,-1.4436,-1.446,-1.4492,-1.4508,-1.4515,-1.4539,-1.4539,-1.4556,-1.4563,-1.4595,-1.461,-1.4597,-1.465,-1.4644,-1.4647,-1.464,-1.4642,-1.4644,-1.464,-1.4599,0,0,0,0,0,-1.436,-1.4386,-1.4417,-1.4446,-1.4457,-1.4481,-1.4496,-1.4507,-1.4532,-1.4542,-1.4562,-1.4585,-1.4611,-1.4627,-1.4652,-1.4686,-1.4693,-1.47,-1.4702,-1.4703,-1.4706,-1.4726,-1.473,-1.4691,-1.4691,-1.4691,0,0,-1.4364,-1.4388,-1.4403,-1.4444,-1.4464,-1.449,-1.4489,-1.4516,-1.4536,-1.4545,-1.4578,-1.4594,-1.4621,-1.4655,-1.4671,-1.4668,-1.4718,-1.4706,-1.4707,-1.4709,-1.4728,-1.4732,-1.4735,-1.4693,-1.4692,-1.4692,0,0,-1.4386,-1.4407,-1.4434,-1.4454,-1.4484,-1.45,-1.4506,-1.4537,-1.4549,-1.4582,-1.459,-1.4613,-1.4656,-1.4676,-1.4691,-1.4721,-1.4726,-1.4728,-1.4739,-1.4758,-1.4761,-1.4763,-1.4775,-1.4779,-1.4731,-1.4731,-1.4731,0,-1.4388,-1.4428,-1.4446,-1.4474,-1.4491,-1.4503,-1.4529,-1.4548,-1.4584,-1.4596,-1.4592,-1.4648,-1.4667,-1.4706,-1.4713,-1.4725,-1.4733,-1.4725,-1.4759,-1.4762,-1.4765,-1.4776,-1.478,-1.4731,-1.4731,-1.4731,-1.4731,0,-1.4429,-1.4457,-1.4475,-1.4511,-1.4531,-1.4558,-1.4579,-1.4597,-1.4605,-1.4621,-1.4655,-1.4678,-1.4708,-1.4718,-1.4726,-1.4758,-1.4756,-1.4756,-1.4749,-1.4768,-1.4779,-1.4783,-1.4732,-1.4732,-1.4732,-1.4732,0,0,-1.4447,-1.4494,-1.45,-1.4517,-1.4552,-1.4573,-1.46,-1.4631,-1.4646,-1.4671,-1.4694,-1.4731,-1.4732,-1.4749,-1.4759,-1.4776,-1.4799,-1.4774,-1.4775,-1.4778,-1.4837,-1.4838,-1.4842,-1.4802,-1.4803,-1.4804,-1.4835,0,-1.4474,-1.4524,-1.4541,-1.4583,-1.4609,-1.462,-1.4644,-1.4668,-1.4683,-1.4707,-1.4723,-1.4749,-1.4747,-1.4758,-1.4775,-1.4793,-1.4811,-1.4791,-1.4824,-1.4825,-1.4818,-1.4848,-1.4848,-1.4877,-1.4839,-1.484,-1.484,0,-1.4512,-1.4539,-1.4583,-1.4616,-1.4627,-1.4649,-1.4679,-1.4701,-1.4728,-1.4738,-1.4758,-1.4768,-1.4796,-1.4788,-1.4827,-1.4813,-1.4827,-1.4838,-1.484,-1.4844,-1.4834,-1.4854,-1.4886,-1.489,-1.4847,-1.4846,-1.4846,0,-1.4521,-1.4568,-1.4602,-1.4616,-1.4654,-1.4669,-1.4685,-1.4712,-1.4729,-1.4755,-1.4767,-1.4795,-1.4811,-1.4832,-1.4849,-1.4841,-1.4887,-1.488,-1.4896,-1.4895,-1.4905,-1.4905,-1.4941,-1.4913,-1.4913,-1.4913,-1.4913,0,-1.455,-1.4577,-1.4607,-1.4627,-1.4658,-1.4677,-1.4706,-1.4723,-1.4746,-1.477,-1.4781,-1.4802,-1.4823,-1.4847,-1.4859,-1.4891,-1.4897,-1.4906,-1.4909,-1.4905,-1.4904,-1.4916,-1.4914,-1.4914,-1.4914,-1.4914,-1.4914,0,-1.4566,-1.4587,-1.4624,-1.4658,-1.4667,-1.4688,-1.4716,-1.4736,-1.4752,-1.4782,-1.479,-1.4815,-1.4844,-1.4863,-1.4899,-1.4908,-1.4942,-1.4944,-1.4933,-1.4935,-1.495,-1.4949,-1.4996,-1.5003,-1.497,-1.497,-1.497,0,-1.4583,-1.4604,-1.4641,-1.4658,-1.4675,-1.4702,-1.4721,-1.474,-1.4759,-1.4792,-1.4808,-1.4838,-1.4863,-1.4909,-1.4929,-1.4957,-1.4961,-1.4975,-1.4965,-1.4961,-1.4962,-1.4961,-1.4963,-1.4977,-1.4977,-1.4978,-1.4978,0,-1.4611,-1.4621,-1.4648,-1.468,-1.4702,-1.4727,-1.4752,-1.4765,-1.4788,-1.4809,-1.484,-1.4859,-1.4897,-1.4927,-1.4957,-1.4973,-1.4979,-1.4981,-1.4986,-1.4983,-1.4976,-1.4981,-1.4939,-1.498,-1.498,-1.4979,-1.4979,-1.4979,-1.4629,-1.4649,-1.4679,-1.4709,-1.473,-1.4753,-1.4774,-1.4793,-1.482,-1.4853,-1.4862,-1.4895,-1.4921,-1.4962,-1.4979,-1.5004,-1.5002,-1.5009,-1.5011,-1.5013,-1.5014,-1.4972,-1.5009,-1.5009,-1.5009,-1.5009,-1.5009,0,-1.4659,-1.4679,-1.4706,-1.4742,-1.4766,-1.4771,-1.4799,-1.4818,-1.4847,-1.4871,-1.4896,-1.4932,-1.4961,-1.4984,-1.5014,-1.5029,-1.5033,-1.5036,-1.5036,-1.5039,-1.5013,-1.5006,-1.5033,-1.5033,-1.5033,-1.5033,-1.5033,-1.5033,-1.4677,-1.4712,-1.4725,-1.477,-1.4789,-1.4822,-1.4838,-1.4859,-1.4879,-1.4919,-1.4944,-1.4959,-1.4983,-1.5015,-1.5042,-1.5048,-1.5058,-1.5062,-1.5068,-1.5044,-1.5041,-1.5038,-1.5032,-1.5064,-1.5064,-1.5092,-1.5093,-1.5093]}]]